Location: Newark
(44.1906°N, 75.9681°W)
Time: 02:32:38
(UTC+00:00)

Envisat - Pass Details

Date: 31 January 2020
Orbit: 764 x 766 km, 98.1° (Epoch: 25 February)

Event Time Altitude Azimuth Distance (km) Brightness Sun altitude
Rises 00:23:20 0° 218° (SW) 3,222 6.8 -23.9°
Reaches altitude 10° 00:27:07 10° 247° (WSW) 2,302 6.4 -24.6°
Maximum altitude 00:29:14 13° 272° (W) 2,133 6.3 -25.0°
Drops below altitude 10° 00:31:21 10° 297° (WNW) 2,309 6.3 -25.3°
Sets 00:35:10 0° 327° (NNW) 3,242 6.7 -26.0°
